www.pogodaiklimat.ru

Погода и климат >> Архив погоды >> Россия >> Краснодарский край >> Геленджик


АРХИВ ПОГОДЫ в Геленджике

Время (UTC), дата Ветер
(напр.,м/с)
 
Видим.   Явления Облачность Т
(С)
Тd
(С)
f
(%)
Тe
(С)
Тes
(С)
Комфортность P
(гПа)
Po
(гПа)
Тmin
(С)
Tmax
(С)
R
(мм)
R24
(мм)
S
(см)
06 19.08 СВ 1 20 км {ливн. осадки} 9/3 300 м
[Sc Ac trans Cc]
+21.2 +19.7 91 +26 +29 душно 1014.7 1012.8
09 19.08 З 2 20 км 3/0
[Ac trans]
+24.3 +17.9 67 +28 +41 душно 1015.0 1013.1
12 19.08 З 3 20 км 4/4 600 м
[Cu Sc]
+25.9 +20.0 70 +32 +37 очень
душно
1014.7 1012.8
15 19.08 С 4 20 км 4/4 600 м
[Sc]
+26.7 +19.7 65 +32 +33 очень
душно
1014.8 1012.9 +28.5 0.7
18 19.08 С 1 10 км 4/1 600 м
[Sc Ac trans]
+24.9 +19.7 73 +30 +30 душно 1015.6 1013.7
21 19.08 С 2 10 км 6/0
[Ac trans]
+25.7 +19.6 69 +31 +31 очень
душно
1015.4 1013.5
00 20.08 С 3 10 км 3/0
[Ac trans]
+25.3 +19.1 69 +30 +30 душно 1015.2 1013.3
03 20.08 СВ 2 50 км 4/3 600 м
[Sc Ac trans Cc]
+24.1 +18.5 71 +29 +29 душно 1015.5 1013.6 +23.7
06 20.08 С 1 50 км 4/0
[Ac trans Cc]
+28.8 +18.6 54 +34 +41 очень
душно
1015.6 1013.8
09 20.08 Ю 2 50 км 1/0
[Ci fib]
+28.7 +19.9 59 +35 +50 очень
душно
1015.4 1013.6
12 20.08 Ю 1 50 км 6/4 1000 м
[Sc Ac trans Ci fib]
+27.7 +21.2 68 +35 +41 очень
душно
1015.2 1013.4
15 20.08 З 1 50 км 6/1 1000 м
[Cu hum Ac trans Cc]
+27.9 +21.1 67 +35 +36 очень
душно
1014.4 1012.6 +29.7
18 20.08 СВ 3 10 км 3/3 1000 м
[Cu hum Ci fib]
+29.3 +19.5 56 +35 +35 очень
душно
1014.8 1013.0
21 20.08 ЮВ 2 10 км 3/0
[Ci fib]
+26.3 +22.0 77 +34 +34 очень
душно
1014.6 1012.7
00 21.08 ЮВ 2 10 км 3/0
[Ci fib]
+24.7 +21.2 81 +31 +31 очень
душно
1014.4 1012.5
03 21.08 С 1 20 км 6/4 1000 м
[Sc Ac trans Cc]
+23.0 +20.8 87 +30 +30 очень
душно
1014.4 1012.5 +22.7
06 21.08 З 1 20 км 4/3 600 м
[Cu Sc Ac trans Cc]
+26.2 +22.1 78 +34 +39 очень
душно
1014.1 1012.2
09 21.08 З 1 20 км 8/3 600 м
[Cu med, cong Ac trans Cc]
+27.2 +22.4 75 +36 +44 очень
душно
1012.9 1011.1
12 21.08 З 3 20 км 6/3 600 м
[Sc Ac trans Cc]
+26.8 +21.8 74 +34 +39 очень
душно
1012.0 1010.2
15 21.08 З 3 50 км 10/6 600 м
[Sc Ac trans Cc]
+26.3 +21.9 77 +34 +34 очень
душно
1010.4 1008.6 +28.2
18 21.08 З 1 10 км 8/3 600 м
[Sc Ac trans Cc]
+25.9 +22.2 80 +34 +34 очень
душно
1010.1 1008.3
21 21.08 СВ 3
{12}
10 км гроза, ливневой дождь 10/10 600 м
[Cb cap]
+22.5 +16.3 68 +27 +27 душно 1009.9 1008.0
00 22.08 ЮВ 4 10 км {гроза, ливн. осадки} 10/10 600 м
[Cb cap]
+30.6 +13.6 35 +32 +32 жарко 1008.2 1006.4
03 22.08 В 2 20 км 10/4 600 м
[Sc diur, vesp Ac trans Cc]
+25.8 +21.5 77 +33 +33 очень
душно
1010.3 1008.5 +21.8 3
06 22.08 С 1 20 км 9/0
[Cc]
+28.5 +21.3 65 +36 +43 очень
душно
1010.3 1008.5
09 22.08 ЮВ 1 20 км 10/4 1000 м
[Sc Ac trans Cc]
+27.8 +23.4 77 +38 +43 очень
душно
1010.2 1008.4
12 22.08 З 1 10 км 10/10 600 м
[Sc]
+27.4 +23.4 79 +37 +37 очень
душно
1010.9 1009.1
15 22.08 З 1 10 км 10/10 600 м
[Sc]
+26.5 +23.0 81 +35 +35 очень
душно
1010.9 1009.1 +30.1
18 22.08 ЮВ 2 10 км 10/10 600 м
[Sc]
+25.5 +23.0 86 +34 +34 очень
душно
1010.8 1008.9
21 22.08 ЮВ 2 10 км ясно +26.1 +19.7 68 +32 +32 очень
душно
1010.8 1009.0
00 23.08 В 1 10 км ясно +23.7 +19.0 75 +28 +28 душно 1012.3 1010.4
03 23.08 СВ 1 10 км 10/0
[Ac trans Cc]
+23.4 +20.4 83 +31 +31 очень
душно
1010.9 1009.0 +22.4
06 23.08 ЮВ 1 50 км 8/0
[Ac trans Cs]
+27.1 +18.4 59 +32 +38 очень
душно
1011.9 1010.1
09 23.08 Ю 2 20 км 6/0
[Ac trans Ci fib]
+28.9 +19.7 58 +35 +46 очень
душно
1012.1 1010.3
12 23.08 Ю 2 20 км 8/0
[Ac trans Ci fib]
+29.3 +19.5 56 +35 +43 очень
душно
1012.7 1010.9
15 23.08 ЮЗ 1 20 км 3/0
[Ac trans]
+30.0 +22.3 63 +39 +40 очень
душно
1011.9 1010.1 +35.2
18 23.08 ЮВ 1 10 км 3/0
[Ac trans]
+25.7 +17.4 60 +30 +30 душно 1012.1 1010.2
21 23.08 С 5 10 км 4/0
[Ac trans Ci fib]
+32.2 +9.1 24 +31 +31 жарко 1011.2 1009.4
00 24.08 СВ 2 10 км ясно +24.2 +20.3 79 +30 +30 очень
душно
1013.4 1011.5
03 24.08 СВ 1 20 км 3/0
[Ac trans]
+22.9 +20.4 86 +30 +30 очень
душно
1013.5 1011.6 +22.6
06 24.08 З 1 50 км ясно +26.8 +20.3 68 +33 +41 очень
душно
1014.4 1012.5
09 24.08 ЮЗ 1 20 км 3/3 1000 м
[Cu hum]
+28.7 +22.6 70 +38 +50 очень
душно
1014.2 1012.4
12 24.08 ЮЗ 1 20 км 4/3 1000 м
[Sc Ac trans Ci fib]
+27.3 +22.6 76 +36 +44 очень
душно
1014.2 1012.4
15 24.08 ЮВ 1 20 км 4/3 600 м
[Cu hum Ac trans Cc]
+27.6 +22.5 74 +36 +37 очень
душно
1014.8 1013.0 +29.3
18 24.08 штиль 0 10 км 4/3 600 м
[Sc Ac trans Cc]
+24.8 +22.7 88 +33 +33 очень
душно
1015.5 1013.6
21 24.08 ЮВ 1 10 км 4/0
[Ac trans]
+24.9 +23.3 91 +33 +33 очень
душно
1015.5 1013.6
00 25.08 С 2 10 км 4/0
[Ac trans]
+22.8 +21.5 92 +30 +30 очень
душно
1015.3 1013.4
03 25.08 СВ 1 20 км 4/0
[Ac trans]
+22.3 +21.5 95 +29 +29 очень
душно
1015.3 1013.4 +22.2
06 25.08 З 3 20 км 6/3 600 м
[Cu med, cong Ac trans Cc]
+26.5 +22.3 78 +35 +38 очень
душно
1015.4 1013.5
09 25.08 ЮВ 1 20 км 4/0
[Ac trans]
+29.8 +20.3 57 +37 +50 очень
душно
1015.4 1013.6
12 25.08 ЮВ 1 20 км ясно +28.6 +22.6 70 +38 +49 очень
душно
1015.5 1013.7
15 25.08 ЮВ 1 20 км 3/3 600 м
[Cu med, cong]
+27.6 +22.0 72 +36 +37 очень
душно
1015.4 1013.6 +30.6
18 25.08 С 1 20 км ясно +24.7 +22.9 90 +33 +33 очень
душно
1016.4 1014.5
21 25.08 СЗ 1 20 км ясно +24.5 +19.2 72 +29 +29 душно 1016.5 1014.6
00 26.08 СВ 4 10 км ясно +26.7 +13.4 44 +29 +29 жарко 1015.9 1014.0
03 26.08 СВ 5-11
{14}
50 км ясно +24.8 +13.7 50 +27 +27 жарко 1016.3 1014.4 +23.0

 

Местоположение метеостанции Геленджик (Краснодарский край, Россия): широта 44.57 долгота 38.08 высота над уровнем моря 15 м.

В архиве по умолчанию представлена погода в Геленджике за последнюю неделю. Архивные данные за месяц целиком и за предыдущие месяцы, начиная с января 2011 года, Вы можете получить, выбрав интересующий диапазон дат из раскрывающегося списка и нажав кнопку "Ввод!".


*Определитесь, кто Вы:
робот инопланетянин человек

Внимание! Время в таблицах - всемирное. Для получения местного времени необходимо прибавить поправку, которая равна 3 ч.

Смотрите также архив погоды в соседних городах и на ближайших метеорологических станциях:

Погода в Новороссийске (Краснодарский край, Россия) (25 км)
Погода в Крымске (Краснодарский край, Россия) (39 км)
Погода в Джубге (Краснодарский край, Россия) (57 км)
Погода в Анапе (Краснодарский край, Россия) (72 км)
Погода в Славянске-на-Кубани (Краснодарский край, Россия) (79 км)
Погода в Горячем Ключе (Краснодарский край, Россия) (81 км)
Погода в Краснодаре (Краснодарский край, Россия) (92 км)
Погода в Туапсе (Краснодарский край, Россия) (95 км)
Погода в Горном (Краснодарский край, Россия) (100 км)
Погода в Темрюке (Краснодарский край, Россия) (100 км)

Пояснения к столбцам:

Ветер - указаны скорость ветра в м/с - средняя за 10 мин, порывы в срок и между сроками (в фигурных скобках) и направление, откуда дует ветер: С - северный, СВ - северо-восточный, В - восточный, ЮВ - юго-восточный, Ю - южный, ЮЗ - юго-западный, З - западный, СЗ - северо-западный.
Видимость - горизонтальная дальность видимости в метрах или километрах. При видимости от 1 до 10 км при отсутствии осадков обычно наблюдается дымка, при ухудшении видимости до 1 км и менее - туман. В сухую погоду видимость может ухудшаться дымом, пылью или мглою.
Явления - указаны атмосферные явления, наблюдавшиеся в срок или в последний час перед сроком; фигурными скобками обозначены явления, наблюдавшиеся между сроками (за 1-3 часа до срока); квадратными скобками обозначены град или гололедные отложения с указанием их диаметра в мм.
Облачность - указаны через наклонную черту общая и нижняя облачность в баллах и высота нижней границы облаков в метрах; квадратными скобками обозначены формы облаков: Ci - перистые, Cs - перисто-слоистые, Cc - перисто-кучевые, Ac - высококучевые, As - высокослоистые, Sc - слоисто-кучевые, Ns - слоисто-дождевые, Cu - кучевые, Cb - кучево-дождевые. Подробнее классификацию облаков см. в Атласе облаков (PDF).
T - Температура воздуха - температура, измеренная на высоте 2 м над землей.
Td - Температура точки росы - температура, при понижении до которой содержащийся в воздухе водяной пар достигнет насыщения.
f - Относительная влажность воздуха - влажноcть воздуха, измеренная на высоте 2 м над землей.
Te - Эффективная температура - температура, которую ощущает одетый по сезону человек в тени. Характеристика душности погоды. При расчете учитывается влияние влажности воздуха и скорости ветра на теплоощущения человека.
Tes - Эффективная температура на солнце - температура, которую ощущает человек, с поправкой на солнечный нагрев. Характеристика знойности погоды. Зависит от высоты солнца над горизонтом, облачности и скорости ветра. Ночью, в пасмурную погоду, а также при ветре 12 м/с и более поправка равна нулю.
P - Атмосферное давление - приведенное к уровню моря атмосферное давление.
Po - Атмосферное давление - измеренное на уровне метеостанции атмосферное давление.
Tmin - Минимальная температура - минимум температуры воздуха на высоте 2 м над землей.
Tmax - Максимальная температура - максимум температуры воздуха на высоте 2 м над землей.
R - Количество осадков - Количество выпавших осадков за период времени, мм. При наведении курсора мыши на число - период времени, за который выпало указанное количество осадков.
R24 - Количество осадков - Количество выпавших осадков за 24 часа, мм.
S - Снежный покров - Высота снежного покрова, см. При наведении курсора мыши на число - состояние снежного покрова и степень покрытия местности в баллах.